Wind_Speed
66 66 69 74 63 67 63 61 59 54 51 48 46 41 32 25 22 19 17 15 13 12 14 13 10 12 10 15 14 15 9 9 8 7 6 4 4 3 4 2 2 3 3 6
54 63 73 75 69 64 70 59 56 55 55 51 49 43 37 29 25 19 17 16 15 12 15 9 12 14 15 16 14 13 13 9 7 3 5 7 4 1 1 1 1 5 3 4
63 68 73 79 69 77 72 71 59 57 57 41 49 47 41 32 25 22 20 18 14 15 15 10 13 17 17 17 15 12 11 14 8 3 4 6 6 4 3 4 3 5 12 12
57 69 70 76 73 79 72 68 65 70 66 51 49 44 40 35 29 26 22 19 14 16 16 13 13 18 19 17 14 13 10 8 9 7 6 7 6 7 7 8 9 8 10 17
62 74 70 75 81 69 74 72 65 66 54 54 49 47 39 36 32 25 24 19 17 15 13 8 16 18 17 13 17 15 13 7 6 5 6 6 9 10 11 9 10 12 12 14
68 76 76 72 82 70 77 64 58 62 42 55 51 48 41 32 31 22 18 16 17 17 14 13 12 15 15 10 14 15 12 8 5 4 6 8 11 14 13 10 10 9 10 10
78 80 76 71 72 70 70 67 58 58 46 56 51 45 38 28 23 24 20 21 18 18 17 16 16 18 16 11 16 14 10 9 6 4 3 4 7 7 8 9 9 9 7 8
70 81 82 80 75 77 71 67 55 50 47 45 49 45 40 34 21 22 19 23 18 15 18 19 16 11 12 11 16 14 12 9 4 4 9 9 12 14 9 7 8 8 6 7
73 73 70 74 80 72 67 57 59 47 42 43 47 45 36 34 31 25 24 22 20 20 23 21 11 10 10 10 8 18 17 14 9 5 5 4 4 9 6 6 9 8 7 6
72 71 61 71 79 76 74 67 53 42 48 25 48 42 38 37 31 32 30 27 24 25 27 21 10 7 14 10 12 18 18 14 18 12 8 9 13 12 6 4 4 8 7 6
67 71 71 66 72 76 70 62 53 47 44 26 37 39 31 38 34 35 31 28 27 29 26 22 11 9 17 12 11 14 19 14 12 14 9 9 10 11 11 9 10 8 8 8
61 73 69 65 73 71 66 57 46 40 38 30 34 34 29 29 29 25 20 21 17 26 26 20 16 11 16 17 8 20 14 16 8 13 6 8 9 11 9 9 9 9 9 11
47 53 51 59 71 66 60 61 44 37 29 34 34 34 29 27 24 19 24 25 16 20 25 19 20 13 15 18 20 14 21 17 18 14 10 11 12 14 12 10 8 10 11 12
61 48 54 63 60 59 51 50 44 41 40 37 35 34 33 29 28 25 24 20 19 15 20 23 17 19 13 16 16 15 19 15 15 18 15 16 15 13 13 13 12 12 13 13
55 45 48 53 58 58 54 43 43 34 29 39 37 31 30 30 28 23 22 24 23 21 17 24 23 18 15 15 19 23 21 17 18 14 13 15 14 12 12 14 12 13 13 14
53 51 47 45 42 48 40 44 36 30 22 34 35 30 29 27 27 24 24 26 21 24 19 25 26 25 20 12 22 19 13 15 13 14 14 16 16 13 13 12 13 13 13 14
51 45 50 40 42 46 46 38 36 34 21 28 29 27 29 28 28 27 26 23 22 24 21 22 26 24 23 30 31 12 8 11 14 17 16 15 13 14 15 13 13 13 14 14
50 47 40 45 41 46 38 31 31 30 24 26 15 18 30 30 30 29 26 23 23 22 24 25 23 25 27 30 23 18 17 17 18 15 15 15 15 15 14 14 13 13 13 13
50 49 49 48 42 33 28 30 33 20 24 16 15 21 28 31 31 29 24 22 21 21 24 26 23 31 30 24 18 16 17 15 14 14 14 14 15 16 15 15 14 13 13 13
54 53 53 48 49 40 28 29 28 25 22 17 14 20 19 27 33 30 25 18 17 10 20 21 31 44 40 30 23 24 18 19 20 18 16 17 16 15 14 14 14 13 13 12
52 51 50 45 46 39 35 22 23 15 16 21 21 17 14 23 32 30 21 11 9 7 13 15 18 41 31 21 23 25 31 33 32 27 22 17 18 16 14 13 12 12 11 12
60 56 47 45 40 16 14 17 16 12 16 17 25 24 20 25 29 19 20 11 8 7 10 10 16 24 15 16 21 24 25 25 26 29 24 17 17 16 13 11 11 10 11 11
50 43 40 32 28 18 17 22 20 17 18 23 20 29 26 26 23 14 11 11 10 8 9 11 19 8 10 10 12 16 17 16 20 26 23 19 17 14 11 10 10 10 11 10
44 36 30 16 16 15 11 28 29 29 21 13 26 31 30 25 24 10 9 10 9 8 10 27 23 16 19 17 16 15 16 18 19 20 19 17 16 13 10 9 10 10 10 11
31 16 16 19 20 15 21 15 27 28 23 21 25 31 23 25 11 11 10 9 10 12 17 18 14 11 13 14 14 14 14 16 18 18 17 16 14 11 11 11 10 11 11 11
26 17 15 27 16 19 20 15 20 25 26 25 28 25 13 16 12 12 15 11 9 10 9 4 5 5 6 9 11 13 15 16 16 16 16 14 12 11 11 10 11 11 11 12
23 23 14 21 24 17 20 23 18 21 25 33 22 17 14 12 14 18 21 29 21 10 7 7 10 9 8 9 10 13 13 14 15 14 13 12 11 11 11 11 11 11 12 13
Wind_Direction
185 187 201 198 181 181 182 181 176 178 180 181 189 191 192 192 189 185 185 186 194 198 187 189 183 178 172 168 159 162 157 151 135 171 168 137 108 92 73 170 208 220 243 279
181 189 195 199 187 189 179 180 175 180 183 186 185 189 195 198 189 186 188 192 197 197 189 184 186 177 170 165 165 173 164 169 136 185 240 227 221 220 281 214 216 217 257 312
184 186 192 193 188 183 189 178 171 180 189 192 193 188 193 194 193 200 200 205 203 199 187 193 182 178 176 175 177 183 182 185 194 209 180 178 198 225 256 245 220 247 264 296
179 193 192 189 190 183 186 177 178 181 186 188 191 192 196 195 190 198 201 205 212 199 188 187 179 185 177 180 186 182 180 193 183 198 202 207 216 234 259 260 262 253 278 302
183 186 189 189 183 192 184 180 184 182 187 187 188 195 197 199 201 206 207 208 201 194 205 204 205 187 182 181 188 188 184 184 186 230 220 226 243 238 241 258 267 270 281 304
190 188 185 183 182 183 183 187 187 183 180 188 191 194 197 199 207 201 202 207 193 195 194 193 162 175 186 185 190 185 183 179 184 244 218 271 267 222 222 250 261 269 277 307
185 182 182 183 185 188 196 191 195 183 184 191 193 194 196 194 192 209 200 185 191 191 191 185 176 171 181 191 187 186 185 180 198 236 231 243 230 230 229 241 254 265 286 304
178 179 180 185 183 190 194 201 196 195 194 194 192 195 196 192 183 187 200 188 190 200 186 166 148 159 189 195 201 201 194 195 218 219 231 275 248 233 239 243 248 244 283 283
175 181 186 178 185 191 190 191 194 197 189 196 193 194 194 190 191 185 187 191 190 185 183 173 168 180 180 186 207 211 208 206 217 224 254 249 221 225 239 253 261 232 285 278
178 185 179 185 190 187 191 194 194 191 193 187 194 193 187 191 192 189 181 182 181 186 188 182 174 180 179 181 189 200 198 215 224 231 253 267 236 239 240 217 249 281 290 279
173 182 178 185 183 188 192 191 190 195 188 183 183 193 200 198 200 196 189 181 193 192 192 195 183 184 193 198 197 192 194 193 208 206 231 258 217 220 225 259 280 283 291 292
178 189 182 179 183 181 191 184 182 180 182 183 185 187 194 202 202 204 203 204 210 202 192 201 197 193 198 203 209 213 209 208 216 212 233 254 278 267 268 273 269 275 284 299
164 186 176 181 187 186 196 194 185 170 172 167 173 174 171 174 187 200 220 217 220 216 211 201 201 201 208 208 222 225 222 225 230 244 254 263 263 264 267 274 263 269 282 294
169 164 171 178 184 190 186 186 170 177 169 162 164 166 169 180 188 186 194 206 226 213 209 209 208 208 217 218 225 227 233 229 243 255 264 270 274 270 261 263 262 269 273 284
168 166 166 173 173 176 178 173 160 163 172 171 162 166 178 185 189 187 194 201 195 201 204 211 217 218 223 233 240 239 235 242 249 272 264 271 276 270 253 255 259 257 266 276
163 168 172 172 174 184 185 164 158 170 183 170 158 171 181 189 190 194 199 203 201 201 210 214 221 226 232 251 249 253 244 237 237 250 256 262 275 272 266 255 251 256 262 271
169 176 178 174 171 167 169 174 165 160 151 178 159 169 185 189 193 199 204 207 205 205 213 220 225 230 239 244 247 227 223 243 250 256 266 266 270 262 262 251 246 248 260 266
166 171 170 173 184 171 167 166 167 164 167 161 159 175 182 193 194 200 206 205 207 214 222 232 233 238 243 251 252 261 244 239 245 247 252 254 257 259 256 248 247 254 262 266
166 170 165 164 175 175 176 167 174 172 180 178 175 182 188 196 197 200 203 208 215 226 235 241 243 246 241 250 254 259 240 236 226 239 247 252 252 251 250 248 252 259 263 268
165 168 174 173 184 188 185 175 180 188 189 187 193 202 194 192 196 196 199 207 214 236 244 248 248 250 250 249 256 261 251 253 252 253 257 260 255 250 245 245 247 256 261 268
164 164 174 176 176 181 183 175 182 179 194 207 210 198 204 199 191 198 195 209 212 237 245 233 253 257 257 265 253 247 250 251 255 259 259 261 242 234 238 245 252 261 264 262
173 173 172 171 173 167 176 183 178 181 189 190 197 195 187 186 189 190 204 204 216 239 229 235 252 268 283 245 237 240 247 253 250 250 254 249 237 235 239 250 256 258 260 268
170 166 163 169 172 182 189 185 177 182 183 197 194 186 185 178 182 185 182 196 222 234 234 242 254 213 171 220 242 245 243 242 237 238 239 235 231 235 244 252 259 259 264 276
172 173 170 176 192 193 194 201 203 203 196 177 198 188 178 182 182 173 185 207 213 230 237 250 259 257 268 262 250 247 243 240 239 234 226 222 225 236 248 255 257 262 271 278
170 162 187 194 191 170 182 179 203 211 207 209 183 189 194 185 176 190 194 196 214 222 248 269 269 253 242 242 244 243 240 236 228 223 216 216 226 235 245 253 260 269 279 284
176 195 198 197 173 170 181 182 188 191 195 184 182 187 192 196 195 199 202 206 214 241 226 245 218 215 236 243 244 241 232 226 217 208 209 218 227 241 252 258 266 276 281 283
195 204 196 185 183 179 191 200 189 182 192 184 183 184 186 194 208 209 218 223 228 215 189 217 263 264 263 257 248 239 227 220 208 205 213 224 239 247 255 261 270 277 281 287
Height
2950 2966 2981 2993 3008 3020 3035 3046 3061 3076 3086 3094 3098 3107 3115 3118 3123 3127 3131 3134 3137 3141 3142 3145 3146 3147 3149 3152 3153 3157 3157 3161 3163 3163 3163 3162 3160 3160 3159 3160 3162 3160 3161 3155
2939 2956 2972 2985 2997 3013 3023 3038 3057 3072 3079 3080 3090 3100 3109 3116 3120 3124 3128 3132 3135 3138 3141 3143 3143 3144 3148 3150 3152 3155 3157 3160 3162 3165 3165 3160 3159 3158 3157 3157 3157 3157 3157 3152
2930 2949 2964 2980 2993 3005 3019 3033 3048 3066 3073 3080 3090 3094 3104 3110 3116 3121 3125 3129 3132 3136 3137 3140 3139 3143 3145 3148 3151 3153 3155 3156 3156 3158 3156 3155 3155 3155 3155 3155 3154 3152 3151 3148
2919 2940 2958 2971 2983 3000 3014 3027 3037 3045 3053 3070 3083 3094 3101 3105 3112 3118 3123 3126 3129 3132 3135 3137 3138 3141 3143 3147 3149 3152 3154 3155 3155 3154 3154 3153 3153 3153 3152 3151 3150 3149 3147 3145
2915 2936 2952 2960 2985 2998 3010 3018 3026 3044 3055 3071 3080 3088 3095 3104 3108 3114 3119 3123 3126 3130 3133 3135 3135 3139 3141 3144 3147 3150 3152 3154 3153 3153 3152 3152 3151 3149 3148 3147 3145 3144 3143 3141
2912 2931 2950 2962 2979 2995 3004 3016 3027 3042 3054 3065 3074 3081 3092 3099 3106 3112 3117 3122 3124 3128 3131 3133 3134 3139 3140 3143 3146 3148 3149 3151 3152 3153 3151 3150 3148 3142 3144 3142 3141 3140 3139 3138
2909 2930 2948 2965 2981 2992 3003 3014 3026 3039 3051 3060 3070 3080 3090 3098 3104 3110 3114 3118 3121 3125 3127 3131 3134 3137 3140 3143 3144 3146 3147 3149 3151 3152 3151 3149 3140 3139 3139 3138 3136 3135 3134 3133
2909 2929 2948 2964 2977 2990 3004 3015 3029 3041 3051 3061 3069 3076 3085 3094 3101 3106 3111 3114 3119 3123 3125 3129 3134 3139 3141 3141 3142 3143 3145 3148 3149 3149 3147 3142 3137 3135 3135 3134 3134 3131 3130 3130
2912 2930 2944 2959 2975 2986 3004 3015 3031 3042 3051 3054 3066 3074 3083 3090 3095 3102 3107 3112 3116 3119 3122 3125 3128 3132 3134 3138 3139 3140 3141 3143 3147 3146 3145 3137 3132 3131 3132 3132 3130 3127 3127 3126
2913 2927 2943 2958 2971 2987 3003 3016 3031 3041 3051 3055 3062 3070 3078 3085 3092 3098 3102 3106 3111 3116 3118 3122 3125 3126 3129 3131 3134 3134 3137 3140 3140 3142 3141 3132 3128 3128 3129 3132 3131 3124 3123 3123
2914 2928 2945 2958 2972 2987 3002 3017 3029 3038 3048 3057 3063 3071 3077 3081 3088 3092 3098 3105 3107 3111 3115 3119 3119 3121 3123 3126 3128 3127 3130 3133 3133 3137 3136 3128 3124 3125 3127 3125 3122 3121 3120 3119
2915 2929 2944 2958 2972 2986 3002 3016 3027 3037 3047 3055 3062 3070 3076 3083 3089 3092 3096 3099 3099 3103 3108 3111 3116 3116 3118 3121 3123 3123 3126 3125 3125 3126 3123 3122 3122 3121 3121 3120 3119 3118 3117 3116
2917 2930 2944 2957 2973 2987 3001 3011 3023 3035 3045 3053 3060 3066 3073 3080 3086 3091 3092 3095 3098 3101 3105 3108 3110 3112 3114 3115 3117 3118 3118 3120 3119 3120 3118 3118 3118 3118 3117 3117 3116 3115 3114 3112
2922 2935 2948 2962 2975 2989 3002 3011 3022 3034 3042 3048 3058 3064 3071 3076 3080 3084 3088 3093 3097 3100 3102 3105 3106 3108 3110 3111 3112 3113 3115 3114 3114 3114 3114 3114 3113 3113 3113 3112 3112 3112 3111 3109
2930 2941 2951 2964 2977 2990 3002 3013 3023 3033 3045 3045 3054 3063 3069 3073 3077 3081 3085 3089 3092 3096 3098 3100 3103 3104 3108 3107 3107 3105 3107 3109 3110 3110 3109 3109 3109 3108 3107 3107 3108 3108 3107 3106
2934 2944 2955 2970 2981 2993 3004 3015 3024 3033 3041 3045 3051 3062 3065 3071 3075 3079 3082 3086 3089 3091 3094 3096 3097 3101 3104 3103 3099 3101 3103 3103 3105 3105 3104 3104 3103 3104 3103 3103 3103 3103 3103 3102
2938 2949 2963 2976 2987 2996 3006 3017 3025 3033 3038 3045 3050 3058 3063 3067 3073 3076 3079 3082 3085 3088 3090 3092 3094 3097 3098 3094 3093 3098 3099 3099 3099 3099 3099 3099 3099 3098 3098 3098 3098 3099 3099 3098
2942 2954 2966 2981 2990 3000 3009 3017 3026 3031 3037 3042 3046 3053 3061 3065 3068 3073 3077 3079 3083 3084 3086 3088 3090 3091 3091 3085 3088 3092 3093 3093 3093 3094 3095 3095 3094 3094 3094 3094 3094 3095 3094 3094
2947 2958 2970 2982 2993 3000 3008 3017 3024 3030 3038 3039 3044 3048 3053 3060 3065 3070 3075 3078 3080 3082 3082 3084 3087 3082 3076 3079 3086 3087 3088 3088 3088 3089 3089 3089 3089 3089 3089 3090 3090 3090 3090 3090
2951 2963 2973 2982 2992 3002 3009 3017 3024 3030 3032 3036 3040 3046 3050 3056 3061 3066 3073 3075 3078 3077 3077 3078 3075 3066 3069 3076 3081 3082 3083 3083 3083 3083 3084 3084 3084 3085 3085 3086 3086 3086 3086 3086
2953 2962 2972 2981 2992 3003 3011 3016 3021 3024 3029 3034 3040 3045 3049 3053 3060 3063 3069 3071 3073 3072 3072 3072 3063 3055 3065 3072 3072 3073 3073 3073 3076 3077 3077 3079 3079 3080 3081 3081 3082 3082 3082 3081
2952 2960 2973 2986 2997 3002 3006 3010 3015 3019 3025 3028 3035 3041 3047 3051 3056 3062 3066 3069 3070 3066 3065 3064 3053 3055 3061 3063 3064 3064 3065 3067 3069 3070 3071 3073 3074 3075 3076 3077 3078 3078 3078 3077
2959 2972 2981 2986 2991 2993 2996 2997 3003 3009 3015 3023 3029 3037 3044 3049 3053 3056 3061 3062 3063 3062 3059 3051 3047 3055 3057 3059 3059 3060 3060 3062 3062 3063 3065 3068 3070 3071 3072 3073 3074 3074 3074 3074
2964 2969 2975 2981 2984 2984 2987 2994 3003 3011 3016 3021 3026 3031 3037 3041 3047 3052 3055 3057 3057 3055 3048 3040 3047 3051 3051 3053 3054 3054 3055 3056 3057 3059 3061 3064 3066 3067 3069 3070 3070 3070 3070 3069
2963 2969 2974 2974 2977 2982 2989 2993 3001 3009 3015 3020 3024 3030 3035 3038 3044 3046 3047 3048 3046 3041 3037 3040 3042 3043 3045 3047 3048 3049 3050 3052 3053 3054 3057 3060 3063 3064 3065 3065 3065 3065 3065 3064
2962 2965 2966 2971 2978 2983 2989 2993 2998 3004 3011 3016 3022 3026 3030 3032 3036 3036 3036 3036 3034 3035 3037 3039 3039 3041 3043 3044 3044 3045 3046 3048 3050 3052 3055 3057 3059 3060 3061 3062 3061 3061 3060 3059
2959 2961 2966 2970 2978 2984 2989 2993 2998 3002 3007 3009 3013 3017 3021 3024 3026 3025 3025 3024 3032 3035 3036 3037 3038 3039 3039 3040 3041 3041 3043 3045 3047 3050 3052 3053 3055 3056 3057 3057 3057 3056 3055 3054